Location: Lac de la Montagne noire
(46.1952°N, 74.2701°W)
Time: 13:14:57
(UTC-04:00)

ISS - Visible Passes

Search period start: 24 June 2019 00:00
Search period end: 04 July 2019 00:00
Orbit: 407 x 418 km, 51.6° (Epoch: 25 June)

Date Brightness Start Highest point End Pass type
(mag) Time Alt. Az. Time Alt. Az. Time Alt. Az.
01 Jul -2.6 04:24:09 10° SSW 04:27:07 32° SE 04:30:07 10° ENE visible
02 Jul -1.9 03:36:02 14° S 03:37:38 20° SE 03:40:07 10° E visible
03 Jul -1.3 02:48:12 12° SE 02:48:13 12° SE 02:49:33 10° ESE visible
03 Jul -3.7 04:21:04 10° SW 04:24:22 73° SSE 04:27:40 10° ENE visible
